Regional Weather Roundup
Issued by NWS Spokane, WA

Home | Current Version | Previous Version | Text Only | Print | Product List | Glossary On
Versions: 1 2 3 4 5 6 7 8 9 10 11 12 13 14 15 16 17 18 19 20 21 22 23 24 25 26 27 28 29 30 31 32 33 34 35 36 37 38 39 40 41 42 43 44 45 46 47 48 49 50
000
NZUS01 KOTX 281310
RWROTX
EASTERN WASHINGTON/NORTHERN IDAHO ROUNDUP
NATIONAL WEATHER SERVICE, SPOKANE WA
600 AM PDT THU JUL 28 2016

Note: "fair" indicated few or no clouds below 12,000 feet with no
significant weather and/or obstructions to visibility.

...NORTHEAST WASHINGTON AND NORTHERN IDAHO PANHANDLE...

CITY           SKY/WX    TMP DP  RH WIND       PRES   REMARKS
SPOKANE INTL   PTCLDY    68  51  54 NE7       30.09R
SPOKANE DOWNTO CLEAR     62  55  77 CALM      30.08R
COEUR D ALENE  CLEAR     63  54  72 E10       30.07S
DEER PARK      CLEAR     61  52  72 N6        30.09R
SANDPOINT      CLEAR     59  52  77 NE5       30.11S
BONNERS FERRY    N/A     57  54  88 CALM      30.15R

...SOUTHEAST WASHINGTON AND SOUTHERN IDAHO PANHANDLE...

CITY           SKY/WX    TMP DP  RH WIND       PRES   REMARKS
WALLA WALLA    CLEAR     69  52  54 E3        30.03R
PULLMAN/MOSCOW CLEAR     54  47  77 CALM      30.10R
LEWISTON       CLEAR     67  51  56 CALM      30.04R
LOWELL           N/A     59  56  89 CALM      30.11R

...COLUMBIA BASIN...

CITY           SKY/WX    TMP DP  RH WIND       PRES   REMARKS
EPHRATA        CLEAR     67  51  56 CALM      30.02R
MOSES LAKE     CLEAR     62  49  62 N5        30.03R
TRI CITIES     CLEAR     61  56  83 CALM      30.00R
HERMISTON      CLEAR     63  52  67 CALM      30.01R
PENDLETON      CLEAR     64  51  62 SE6       30.05R

...EAST SLOPES CASCADES...

CITY           SKY/WX    TMP DP  RH WIND       PRES   REMARKS
THE DALLES     CLEAR     68  58  70 NW7       30.01R
YAKIMA         CLEAR     69  54  58 W8        30.05R
ELLENSBURG     CLEAR     62  55  77 N3        30.08R
STAMPEDE PASS  CLEAR     56  52  86 SW6       30.22S
WENATCHEE      CLEAR     73  58  59 NW10      30.05R
OMAK           CLEAR     70  51  51 N12       30.06R

...SOUTHERN BRITISH COLUMBIA...

CITY           SKY/WX    TMP DP  RH WIND       PRES   REMARKS
PENTICTON      CLEAR     61  52  72 N3        30.09R
CASTLEGAR      CLEAR     63  57  82 N10       30.14
CRANBROOK      PTCLDY    55  50  82 SW3       30.20S

...WESTERN MONTANA...

CITY           SKY/WX    TMP DP  RH WIND       PRES   REMARKS
MISSOULA       PTCLDY    61  49  64 NW3       30.17R

...NEIGHBORING CITIES...

CITY           SKY/WX    TMP DP  RH WIND       PRES   REMARKS
SEATTLE        CLEAR     61  59  93 CALM      30.12S
CALGARY        PTCLDY    55  50  82 CALM      30.18F



USA.gov is the U.S. government's official web portal to all federal, state and local government web resources and services.